Location: Unspecified
(0.0000°N, 0.0000°E)
Time: 16:20:22
(UTC+00:00)

N. Korean satellite - Pass Details

Date: 10 October 2017
Orbit: 459 x 517 km, 97.2° (Epoch: 18 October)

Event Time Altitude Azimuth Distance (km) Brightness Sun altitude
Rises 18:28:04 0° 170° (S) 2,623 10.3 -10.2°
Reaches altitude 10° 18:30:10 10° 171° (S) 1,729 9.3 -10.7°
Maximum altitude 18:33:54 85° 258° (WSW) 510 6.7 -11.7°
Drops below altitude 10° 18:37:34 10° 348° (NNW) 1,693 9.4 -12.6°
Sets 18:39:36 0° 348° (NNW) 2,563 10.3 -13.1°
